EHI
0 0 0 0 0 0 0 0 0 0 0 0 0 0 0 0 0 0 0 4 11 13 11 12 17 20 19 18 18 17 15 14 13 11 7 4 2 2 1 1 2 3 2 1 0 0 0 0 0
0 0 0 0 0 0 0 0 0 0 0 0 0 0 0 0 0 0 0 6 15 16 12 13 18 22 22 20 19 17 15 14 14 11 8 5 3 2 1 1 2 3 2 1 0 0 0 0 0
0 0 0 0 0 0 0 0 0 0 0 0 0 0 0 0 0 0 2 10 20 20 14 14 21 24 24 21 18 16 15 15 14 10 7 5 4 3 2 2 3 4 3 1 0 0 0 0 0
0 0 0 0 0 0 0 0 0 0 0 0 0 0 0 0 0 1 6 16 24 23 16 16 22 25 23 20 17 17 17 16 13 8 5 3 3 3 3 4 5 5 3 1 0 0 0 0 0
0 0 0 0 0 0 0 0 0 0 0 0 0 0 0 1 1 4 12 20 26 26 20 19 24 25 23 20 18 17 17 17 14 9 4 2 2 3 3 5 6 5 4 2 1 0 0 0 0
0 0 0 0 0 0 0 0 0 0 0 0 0 0 1 3 4 8 15 22 26 26 23 23 24 25 23 21 19 18 18 18 15 10 5 2 1 3 4 5 4 4 3 3 1 0 0 0 0
0 0 0 0 0 0 0 0 0 0 0 0 0 0 2 5 8 12 18 23 26 26 26 24 22 21 20 19 18 18 19 18 15 10 7 3 1 2 3 3 3 3 3 3 2 0 0 0 0
0 0 0 0 0 0 0 0 0 0 0 0 0 0 2 8 15 20 24 27 27 27 26 23 18 16 16 16 16 16 15 14 11 8 6 4 2 1 1 2 3 3 3 3 1 0 0 0 0
0 0 0 0 0 0 0 0 0 0 0 0 0 0 4 11 20 26 28 29 28 26 25 21 16 14 14 13 12 12 11 8 6 5 5 4 1 0 1 2 3 3 3 2 1 0 0 0 0
0 0 0 0 0 0 0 0 0 0 0 0 0 1 6 14 20 24 25 25 25 25 23 19 15 13 13 11 10 10 8 6 4 3 2 1 0 0 0 1 2 2 2 1 0 0 0 0 0
0 0 0 0 0 0 0 0 0 0 0 0 0 2 8 14 17 19 19 20 22 23 23 19 14 12 11 11 11 10 8 6 4 2 1 0 0 0 0 0 1 1 1 0 0 0 0 0 0
0 0 0 0 0 0 0 0 0 0 0 0 0 2 8 13 16 16 16 17 19 20 21 18 14 11 10 11 11 10 8 6 4 2 1 0 0 0 0 0 0 0 0 0 0 0 0 0 0
0 0 0 0 0 0 0 0 0 0 0 0 1 3 7 12 15 15 16 16 16 17 18 16 12 9 9 10 10 10 10 7 4 2 1 0 0 0 0 0 0 0 0 0 0 0 0 0 0
0 0 0 0 0 0 0 0 0 0 0 0 1 3 6 9 12 14 14 15 15 15 15 13 9 7 8 9 9 10 10 8 5 3 1 0 0 0 0 0 0 0 0 0 0 0 0 0 0
0 0 0 0 0 0 0 0 0 0 0 0 0 1 3 6 7 8 10 13 15 14 14 12 8 6 7 7 8 9 9 8 5 2 1 0 0 0 0 0 0 0 0 0 0 0 0 0 0
0 0 0 0 0 0 0 0 0 0 0 0 0 1 2 4 4 4 7 11 13 14 13 11 8 6 6 7 7 7 8 7 3 1 0 0 0 0 0 0 0 0 0 0 0 0 0 0 0
0 0 0 0 0 0 0 0 0 0 0 0 0 1 2 4 4 4 5 7 10 11 12 11 8 6 6 6 6 6 6 4 1 0 0 0 0 0 0 0 0 0 0 0 0 0 0 0 0
0 0 0 0 0 0 0 0 0 0 0 0 0 1 3 3 4 3 3 5 7 9 10 9 7 6 6 6 6 6 4 2 1 0 0 0 0 0 0 0 0 0 0 0 0 0 0 0 0
0 0 0 0 0 0 0 0 0 0 0 0 1 2 3 3 3 3 3 4 5 6 6 6 5 5 6 6 6 6 4 2 1 0 0 0 0 0 0 0 0 0 0 0 0 0 0 0 0
0 0 0 0 0 0 0 0 0 0 0 1 2 3 3 3 3 3 3 3 3 4 4 4 4 4 6 6 6 6 5 3 2 0 0 0 0 0 0 0 0 0 0 0 0 0 0 0 0
0 0 0 0 0 0 0 0 0 0 0 1 2 2 2 2 2 2 2 3 3 3 3 2 2 3 4 5 5 4 4 3 1 0 0 0 0 0 0 0 0 0 0 0 0 0 0 0 0
0 0 0 0 0 0 0 0 0 0 0 1 1 1 1 1 1 1 1 1 2 2 1 1 0 1 2 3 4 3 3 2 1 0 0 0 0 0 0 0 0 0 0 0 0 0 0 0 0
0 0 0 0 0 0 0 0 0 0 0 0 0 0 0 0 0 0 0 0 1 1 1 0 0 0 1 2 3 3 2 1 0 0 0 0 0 0 0 0 0 0 0 0 0 0 0 0 0
0 0 0 0 0 0 0 0 0 0 0 0 0 0 0 0 0 0 0 0 0 1 1 0 0 0 0 1 2 1 1 0 0 0 0 0 0 0 0 0 0 0 0 0 0 0 0 0 0
0 0 0 0 0 0 0 0 0 0 0 0 0 0 0 0 0 0 0 0 0 1 1 0 0 0 0 0 0 0 0 0 0 0 0 0 0 0 0 0 0 0 0 0 0 0 0 0 0
0 0 0 0 0 0 0 0 0 0 0 0 0 0 0 0 0 0 0 0 0 0 0 0 0 0 0 0 0 0 0 0 0 0 0 0 0 0 0 0 0 0 0 0 0 0 0 0 0
0 0 0 0 0 0 0 0 0 0 0 0 0 0 0 0 0 0 0 0 0 0 0 0 0 0 0 0 0 0 0 0 0 0 0 0 0 0 0 0 0 0 0 0 0 0 0 0 0
0 0 0 0 0 0 0 0 0 0 0 0 0 0 0 0 0 0 0 0 0 0 0 0 0 0 0 0 0 0 0 0 0 0 0 0 0 0 0 0 0 0 0 0 0 0 0 0 0
0 0 0 0 0 0 0 0 0 0 0 0 0 0 0 0 0 0 0 0 0 0 0 0 0 0 0 0 0 0 0 0 0 0 0 0 0 0 0 0 0 0 0 0 0 0 0 0 0
0 0 0 0 0 0 0 0 0 0 0 0 0 0 0 0 0 0 0 0 0 0 0 0 0 0 0 0 0 0 0 0 0 0 0 0 0 0 0 0 0 0 0 0 0 0 0 0 0
Wind_Speed
5 3 2 4 6 3 3 5 3 2 2 2 2 4 6 6 5 3 1 6 10 11 10 12 14 14 14 14 13 13 13 13 14 14 14 14 14 13 13 13 13 13 13 14 14 14 14 14 14
1 1 4 5 5 2 6 5 4 4 3 2 2 2 3 1 1 4 4 5 11 11 9 10 13 14 14 14 14 14 14 13 13 13 13 13 13 13 13 13 13 13 13 13 13 13 13 13 13
1 2 3 4 4 7 6 4 5 2 1 1 2 2 2 2 3 4 4 8 10 9 8 10 14 14 14 14 14 14 13 13 13 13 13 13 13 12 12 12 12 12 13 13 12 12 12 12 12
2 3 3 3 6 6 5 3 3 2 0 1 3 2 0 1 2 4 8 10 11 9 8 10 14 15 14 14 14 13 13 13 13 13 12 13 12 12 12 12 12 12 12 12 12 12 11 11 11
3 3 2 3 6 4 4 3 2 2 2 1 3 3 1 4 3 8 10 10 11 9 7 9 13 14 14 14 13 13 13 12 12 12 12 12 12 12 12 11 11 11 12 11 11 11 11 11 11
3 3 4 6 6 4 3 3 1 1 1 1 3 3 0 2 5 8 9 9 9 9 8 8 12 12 13 13 12 12 12 11 11 11 11 11 11 11 11 11 11 11 11 11 11 10 10 10 10
3 3 5 5 4 4 3 2 3 2 2 2 3 4 1 2 4 8 8 8 7 8 8 6 7 8 11 11 11 11 11 10 10 10 10 10 10 10 10 10 10 10 10 10 9 10 9 10 10
3 3 3 4 4 4 2 2 2 3 2 1 3 5 4 4 7 8 8 7 7 6 7 6 6 6 6 6 9 9 9 9 9 10 10 9 8 8 9 8 8 9 9 9 8 9 9 9 8
3 2 5 6 5 3 1 1 1 1 3 1 0 2 2 9 10 10 8 6 6 7 5 6 6 5 5 5 6 7 8 8 8 8 9 7 4 4 4 5 7 8 8 8 8 8 8 8 7
3 5 7 4 3 2 0 1 1 2 2 1 2 2 5 9 11 12 11 10 9 8 7 6 6 6 5 4 4 3 4 4 4 4 5 4 3 3 3 5 6 7 7 7 7 7 7 5 3
4 5 3 3 2 1 0 0 0 4 2 4 4 6 9 9 9 10 10 9 9 7 6 6 6 6 5 4 3 2 2 3 3 4 4 4 3 3 2 2 2 3 4 3 4 4 2 2 2
3 2 2 2 1 1 0 0 0 2 3 2 4 8 11 10 10 10 9 8 7 7 6 6 6 5 5 4 4 3 3 3 3 3 4 4 3 2 2 2 2 2 1 2 2 2 2 2 2
3 1 1 1 1 1 1 0 1 3 2 2 5 7 9 9 8 7 6 6 6 6 6 6 6 6 5 5 4 4 3 3 3 3 3 4 3 3 2 2 1 1 2 2 2 2 2 2 2
3 1 0 1 1 1 1 3 1 3 2 4 5 6 7 7 7 5 5 6 6 6 6 5 6 6 5 4 4 4 3 3 3 3 3 4 3 3 3 2 2 1 1 2 2 2 2 1 1
2 1 1 1 1 1 1 3 2 2 2 3 3 4 4 4 4 5 6 6 6 6 5 5 6 6 6 5 4 3 3 3 3 3 3 4 4 4 3 3 2 2 1 2 2 2 2 1 1
3 2 2 2 2 0 3 5 3 1 3 2 2 2 3 3 3 3 3 3 4 5 5 5 5 6 5 4 4 3 3 3 2 2 3 3 3 4 3 3 2 2 2 2 2 2 2 1 1
2 4 4 2 1 2 3 4 3 2 2 2 1 2 2 1 0 0 1 2 3 4 5 4 4 5 5 4 3 3 3 3 2 2 2 3 3 4 3 3 2 3 2 1 2 1 2 1 1
5 4 3 3 1 3 2 3 3 2 2 1 1 1 1 2 2 1 1 2 2 3 4 4 4 4 4 4 3 2 2 2 2 2 2 3 3 3 3 3 3 3 2 2 1 2 1 1 1
4 4 3 3 1 2 2 2 3 2 0 1 1 1 1 3 2 1 1 2 3 2 3 4 4 4 4 3 3 3 2 2 1 2 2 3 3 3 3 2 3 3 3 3 2 2 2 1 1
4 4 2 0 1 2 1 3 3 1 2 2 2 2 2 2 1 1 1 2 2 3 3 3 3 4 4 4 3 2 2 2 1 1 2 3 3 3 3 3 3 3 2 3 2 2 2 1 1
2 5 4 3 1 2 2 3 3 1 0 1 1 1 1 2 2 1 1 1 1 2 3 3 3 3 3 4 3 3 3 2 1 1 2 2 3 3 3 3 3 3 3 3 3 3 3 2 1
2 3 4 4 3 0 2 3 5 2 2 2 2 1 2 2 2 2 1 1 2 2 2 2 2 2 2 3 4 5 4 3 3 2 2 2 2 3 3 3 3 3 2 3 2 2 2 3 2
2 2 3 3 3 1 1 2 6 1 3 4 4 2 3 3 2 2 1 2 1 1 1 2 2 2 2 3 4 5 3 2 2 2 2 2 1 2 2 3 3 3 2 2 2 2 2 1 2
2 4 5 4 3 2 3 4 6 3 5 4 3 3 2 2 2 1 1 0 1 2 2 2 2 1 1 2 3 3 4 3 3 2 2 2 1 1 1 2 2 2 2 2 2 2 2 2 2
3 5 3 1 1 4 2 3 7 4 3 4 4 3 2 2 1 1 1 1 1 1 1 1 2 1 1 2 2 2 3 4 5 4 3 2 2 1 1 1 2 2 2 2 2 2 2 2 2
1 3 5 4 4 2 0 5 6 3 3 2 2 2 1 2 2 2 1 1 1 1 1 1 2 1 1 1 1 1 2 2 2 2 3 2 2 2 2 2 2 1 2 2 2 2 1 1 1
2 1 2 4 2 1 4 5 7 2 2 2 2 1 2 2 2 3 2 1 0 1 1 1 2 1 1 1 1 1 2 2 2 2 2 2 1 1 2 2 2 1 2 2 2 2 1 2 1
2 3 3 3 3 2 3 4 5 4 4 3 2 2 2 2 3 3 2 2 1 0 0 1 1 1 1 1 2 1 1 1 2 2 2 2 1 2 2 3 2 2 2 2 2 2 2 2 1
2 2 2 2 2 4 3 6 4 4 3 4 4 3 2 2 2 2 2 2 1 2 1 1 1 1 1 1 1 2 1 2 2 2 2 2 2 2 2 2 3 3 2 2 2 2 2 2 1
2 3 4 4 2 2 2 7 2 2 3 3 3 3 2 2 1 1 1 2 2 2 1 1 1 1 1 1 1 1 1 2 2 1 1 2 2 2 2 2 2 2 2 2 3 3 2 2 1
Wind_Direction
340 14 60 57 60 60 231 240 225 229 221 220 165 151 154 157 166 184 121 138 134 141 147 145 144 142 139 134 131 128 124 123 120 117 116 115 113 111 108 105 101 100 98 96 95 93 91 89 88
349 27 56 66 105 180 248 236 221 217 193 140 83 98 109 155 121 118 134 145 138 139 142 142 141 139 137 134 132 129 126 124 122 119 118 117 116 113 110 107 103 102 99 97 96 94 91 89 88
22 54 90 96 155 192 220 226 217 246 226 136 102 81 130 161 147 152 155 144 133 135 138 142 140 138 137 134 132 130 129 126 124 122 121 120 118 114 112 109 107 105 102 100 98 96 93 91 89
75 57 65 120 213 219 216 229 190 186 300 101 123 96 23 11 170 156 140 138 131 132 135 142 140 140 138 135 132 131 130 129 127 125 123 122 120 117 114 111 109 108 105 103 101 98 96 94 93
67 96 124 219 232 239 238 247 184 164 167 137 130 128 352 352 99 129 136 138 136 135 135 143 142 142 140 138 135 133 131 130 129 128 126 125 122 119 115 113 112 111 109 107 105 103 99 96 96
86 101 162 218 232 251 250 227 160 136 150 122 132 123 88 47 114 132 135 134 135 137 136 142 142 141 140 139 137 136 134 132 130 130 129 127 124 122 120 117 115 114 111 109 107 105 101 98 97
138 145 197 208 221 243 233 185 168 163 163 198 160 126 128 129 135 133 127 123 125 130 132 135 139 139 140 139 137 137 135 134 132 130 125 123 124 125 123 120 117 114 111 109 107 106 103 100 98
148 140 189 210 200 232 234 165 154 157 194 185 139 145 175 171 138 127 122 122 125 127 130 131 129 132 133 136 137 136 135 134 130 125 119 116 116 120 117 115 117 115 112 110 108 105 103 99 95
124 156 208 205 194 225 249 130 8 63 116 85 22 197 175 141 138 134 132 133 141 142 139 137 133 132 132 134 136 132 130 127 123 118 113 105 95 98 106 111 116 117 115 111 107 102 99 93 89
152 200 220 213 199 207 207 156 174 94 90 51 11 37 118 140 149 153 158 162 164 163 158 149 143 141 139 138 126 122 120 118 115 114 112 104 99 95 101 108 111 113 111 108 103 97 90 80 71
178 205 215 252 247 243 207 287 151 135 187 204 185 161 148 152 158 162 167 169 169 163 161 156 152 149 147 141 134 127 123 121 120 124 121 115 104 95 85 90 91 93 97 91 89 78 72 77 79
178 219 202 260 303 337 274 181 67 181 228 227 172 156 154 162 168 172 172 169 162 160 162 156 151 151 152 147 144 140 138 136 139 139 137 134 128 117 112 101 105 101 106 109 98 93 85 83 83
207 207 216 266 330 349 38 325 218 272 310 59 113 141 159 167 171 170 167 163 160 165 164 162 153 155 154 148 151 152 154 149 148 144 146 146 144 144 137 126 116 123 123 129 127 118 109 96 84
192 178 232 265 268 333 53 308 349 288 51 86 121 154 170 173 172 160 159 168 170 168 166 161 161 160 153 153 156 159 157 151 147 151 156 153 151 151 149 143 137 137 147 145 141 139 128 114 102
143 119 325 281 219 256 73 319 268 291 78 93 129 155 159 163 162 172 178 177 177 172 164 162 164 155 154 155 157 150 152 148 152 154 155 156 155 156 155 153 154 161 149 142 128 118 110 107 91
128 147 228 272 182 237 130 253 293 359 111 112 123 146 156 166 172 177 171 170 171 164 162 163 160 153 153 151 148 145 148 146 152 149 153 162 163 158 154 152 163 158 147 145 145 140 130 128 119
137 190 202 260 174 125 147 242 293 350 106 123 132 151 166 176 145 171 160 165 165 166 162 159 155 157 156 146 143 142 140 145 150 147 153 164 166 166 161 160 164 151 151 155 164 143 148 153 149
182 175 179 204 223 126 168 254 306 338 113 165 184 162 169 202 242 242 164 149 150 156 155 155 154 153 147 135 124 119 117 132 144 155 163 160 165 167 161 160 160 151 149 162 161 155 138 149 153
150 148 174 211 222 120 180 250 288 319 9 257 238 204 224 243 284 357 112 131 131 132 147 163 160 159 152 149 153 157 166 164 161 168 163 161 159 159 156 156 156 158 165 177 170 160 146 136 131
149 147 159 176 116 133 167 279 292 322 218 219 216 228 249 271 341 358 63 120 150 163 169 168 175 175 173 171 165 159 148 152 159 154 154 159 161 162 163 161 162 162 158 158 173 159 156 140 135
168 173 174 174 59 75 110 307 291 311 8 6 319 281 283 265 274 268 224 206 177 174 180 184 185 182 177 158 131 110 100 94 127 162 174 177 172 166 163 163 159 162 162 166 179 176 170 168 161
207 187 168 154 127 257 140 250 282 269 296 291 290 306 294 302 299 277 234 227 216 211 184 167 165 157 151 150 155 157 166 178 195 185 182 168 165 166 164 162 159 160 162 162 176 181 180 158 168
191 152 130 129 127 73 63 179 283 303 263 267 273 276 279 281 271 277 254 237 230 190 157 147 125 125 137 155 168 172 168 166 144 134 154 156 146 146 152 153 152 157 160 162 158 166 173 167 166
123 84 65 56 82 218 215 177 272 242 231 253 257 265 280 287 281 283 287 32 33 54 79 103 120 111 129 152 159 168 168 153 140 146 165 166 145 135 137 143 147 150 151 159 165 172 170 174 162
87 103 83 50 174 237 198 194 248 252 236 232 240 255 281 309 323 317 3 42 38 61 83 112 121 111 128 150 168 171 170 165 170 174 176 167 159 164 176 151 148 144 145 145 148 152 160 169 168
199 142 153 176 197 266 221 227 251 265 271 265 264 269 318 335 335 311 266 211 192 157 135 136 139 136 148 160 178 157 161 165 168 169 172 173 178 175 162 153 141 132 129 128 128 123 147 141 154
131 139 140 120 101 159 249 279 295 269 310 316 324 343 318 318 323 314 307 295 185 158 176 184 168 151 157 147 127 128 132 143 156 159 154 148 149 142 144 146 134 129 130 132 128 125 131 137 155
125 138 96 114 149 230 271 259 254 270 280 294 293 301 303 323 334 335 341 348 8 81 78 92 120 141 128 114 129 128 125 135 140 138 141 146 149 136 141 140 142 141 134 132 129 124 132 131 147
67 99 106 119 160 169 239 264 240 243 260 267 266 264 279 303 315 331 349 359 23 58 82 84 82 92 106 116 112 120 128 120 122 138 147 155 151 148 152 157 153 153 148 141 135 142 144 142 145
158 168 154 167 213 183 203 271 296 261 282 279 288 313 324 324 330 1 21 25 31 45 62 75 90 103 106 115 110 109 114 117 126 147 150 150 147 149 156 157 149 147 149 150 154 163 153 155 168